Location: Allinges
(46.3366°N, 6.4636°E)
Time: 12:11:12
(UTC+00:00)

Daily predictions for brighter satellites

Satellite Brightness Start Highest point End
(mag) Time Altitude Azimuth Time Altitude Azimuth Time Altitude Azimuth
Cosmos 1943 3.8 18:28:12 10° S 18:33:14 35° ESE 18:38:20 10° NE
ARGOS Delta rocket 4.2 18:29:53 10° SSE 18:35:06 64° ENE 18:40:31 10° N
STARLINK-1073 4.5 18:32:11 10° WNW 18:36:10 47° SW 18:40:08 10° SE
CSL-04 Rocket 4.2 18:31:06 10° S 18:36:20 64° WSW 18:41:36 10° NNW
Aureole 2 Rocket 2.4 18:33:33 10° NNW 18:37:03 70° ENE 18:40:26 10° SSE
BREEZE-M DEB (TANK) 2.6 18:30:23 10° SW 18:37:44 62° SSE 18:40:28 10° ENE
CZ-2C R/B 3.2 18:33:55 10° SE 18:38:35 46° ENE 18:43:08 10° N
Meteor 2-15 4.4 18:33:05 10° S 18:39:05 74° E 18:45:09 10° NNE
H-2A R/B 2.1 18:43:09 10° SSE 18:48:19 64° ENE 18:53:22 10° N
SJ-11-01 4.3 18:45:46 10° SSE 18:50:28 88° ENE 18:55:14 10° NNW
NOSS 3-4 (A) 4.4 18:45:23 10° NNW 18:51:56 45° NE 18:58:54 11° ESE
NOSS 3-4 (C) 4.4 18:45:30 10° NNW 18:52:03 45° NE 18:58:59 11° ESE
Cosmos 1656 Rocket 4.1 18:48:43 10° NNW 18:54:11 46° ENE 18:59:33 10° SE
ADEOS Rocket 3.9 18:47:58 10° N 18:54:19 56° WNW 19:00:03 10° SW
SL-16 R/B 3.7 18:51:05 10° SW 18:56:25 41° NW 19:01:47 10° NNE
CZ-2C R/B 3.7 18:54:04 10° NE 18:58:07 23° E 19:02:10 10° SE
NOSS 3-3 (A) 3.9 18:55:12 10° SSW 19:01:02 79° SE 19:07:38 10° NE
NOSS 3-3 (C) 3.9 18:55:18 10° SSW 19:01:08 78° SE 19:07:44 10° NE
Cosmos 2251 Rocket 3.6 18:56:33 10° SSW 19:01:55 87° ESE 19:07:21 10° NNE
Cosmos 1726 2.2 18:58:25 10° S 19:02:03 52° E 19:05:42 10° NNE
ARGOS 3.1 18:58:43 10° SSE 19:04:06 74° ENE 19:09:29 10° N
MONITOR-E 3.6 19:03:16 10° SSE 19:05:54 77° ENE 19:08:33 10° N
Cosmos 2184 Rocket 4.0 19:00:15 10° N 19:06:32 64° ENE 19:12:41 10° SSE
STARLINK-60 4.4 19:04:03 10° S 19:06:36 21° SE 19:07:54 17° ESE
ISS -2.1 19:04:12 10° W 19:07:08 28° SW 19:10:03 10° SSE
SJ-6B 2.9 19:03:31 10° SSE 19:07:34 66° ENE 19:11:42 10° N
BREEZE M DEB (TANK) 4.1 19:07:56 10° SSE 19:10:16 17° ESE 19:14:14 10° ENE
Meteor 2-10 4.1 19:05:29 10° S 19:10:53 69° E 19:16:29 10° NNE
USA 186 1.9 19:09:15 10° S 19:12:37 78° W 19:15:51 10° NNW
STARLINK-67 4.1 19:10:58 10° NW 19:13:10 25° NNE 19:14:43 15° ENE
STARLINK-1209 4.4 19:16:08 10° NW 19:18:43 26° NNE 19:20:37 14° ENE
Cosmos 1603 3.7 19:13:15 10° SSW 19:18:52 85° WNW 19:24:31 10° NNE
FREGAT/IRIS 3.1 19:16:51 10° S 19:19:30 52° W 19:22:11 10° NNW
IRIDIUM 104 4.4 19:14:17 10° N 19:19:32 87° W 19:24:45 10° S
Cosmos 2058 Rocket 3.9 19:16:33 11° SSE 19:20:22 31° E 19:24:20 10° NNE
Ariane Rocket 3.6 19:16:21 10° S 19:21:20 57° WSW 19:26:20 10° NNW
MOS 1 Rocket 4.0 19:18:16 10° NNE 19:23:20 41° E 19:28:26 10° SSE
Resurs 01 Rocket 2.3 19:21:42 19° SE 19:24:19 36° ENE 19:28:22 10° N
ATLAS 2AS CENTAUR R/B 3.0 19:16:58 10° NW 19:24:37 66° NE 19:29:59 19° SE
USA 234 3.8 19:19:17 10° ENE 19:25:09 34° SE 19:30:59 10° SSW
Meteor 1-16 Rocket 4.1 19:22:54 10° S 19:28:17 82° E 19:33:51 10° NNE
Cosmos 2154 Rocket 4.1 19:22:27 10° N 19:28:47 61° ENE 19:34:52 11° SSE
Cosmos 1190 Rocket 4.5 19:25:06 10° S 19:29:57 38° ESE 19:34:49 10° NE
SeaSat 1 4.4 19:26:30 10° NNE 19:30:51 32° NW 19:35:12 10° WSW
Nadezhda 1 Rocket 4.0 19:24:54 10° S 19:31:11 63° E 19:37:28 10° NNE
Cosmos 1140 Rocket 4.1 19:26:43 10° SSE 19:31:20 33° ESE 19:35:57 10° NE
SL-4 R/B 1.5 19:28:23 10° SW 19:31:44 61° SSE 19:33:43 22° ENE
Cosmos 1726 Rocket 3.5 19:29:17 10° S 19:33:38 64° E 19:38:03 10° NNE
Cosmos 1340 Rocket 3.3 19:32:48 18° SSE 19:35:24 40° E 19:39:12 10° NNE
ATLAS 5 CENTAUR R/B 2.1 19:33:22 10° S 19:37:03 31° ESE 19:41:04 10° NE
Cosmos 1825 Rocket 3.9 19:35:45 10° NNW 19:40:08 68° W 19:44:27 10° S
Cosmos 1328 3.7 19:36:10 10° N 19:40:12 88° ENE 19:43:15 17° S
SL-24 R/B - RUBIN 2 4.4 19:35:16 10° S 19:40:32 47° ESE 19:46:27 10° NE
Cosmos 1703 3.4 19:41:38 10° NNW 19:45:36 77° W 19:48:40 16° S
Meteor 2-17 Rocket 4.4 19:39:44 10° N 19:45:55 80° E 19:51:27 13° SSE
Cosmos 614 Rocket 3.9 19:43:00 10° SSW 19:48:13 75° ESE 19:53:26 10° NNE
Cosmos 1943 Rocket 4.1 19:45:29 10° NW 19:50:01 26° WSW 19:54:33 10° SSW
Cosmos 1300 3.7 19:50:48 29° ENE 19:50:48 29° ENE 19:53:36 10° NNE
SPOT 3 Rocket 3.7 19:45:41 11° S 19:50:47 74° WSW 19:56:01 10° NNW
Abrixas rocket 2.4 19:48:53 10° WNW 19:51:48 56° N 19:52:19 46° NE
Cosmos 2369 Rocket 3.7 19:47:01 10° NW 19:52:05 34° WSW 19:57:05 10° SSW
COSMOS 2455 3.2 19:48:01 10° NNW 19:53:54 52° NE 19:56:39 30° ESE
SL-24 R/B 4.1 19:49:49 10° N 19:54:02 71° WNW 19:57:48 10° SSW
CZ-2C R/B 4.0 19:51:10 10° N 19:55:53 72° WNW 20:00:30 10° SSW
Cosmos 921 Rocket 3.1 19:52:09 10° N 19:56:15 51° ENE 19:57:12 42° ESE
Cosmos 676 Rocket 4.4 19:56:21 29° SSE 19:58:15 40° ESE 20:03:08 10° NE
Cosmos 407 Rocket 3.3 19:54:25 10° SSW 19:59:34 79° ESE 20:04:43 10° NNE
Cosmos 2228 3.6 19:55:48 10° SSW 20:00:01 57° WNW 20:04:19 10° N
Cosmos 1953 Rocket 4.0 19:56:04 10° NNW 20:00:30 62° W 20:04:01 16° S
Cosmos 1606 Rocket 4.4 19:58:21 10° SSW 20:02:39 51° WNW 20:07:02 10° N
Cosmos 1908 3.8 19:59:24 10° SSW 20:03:12 58° WNW 20:07:03 10° N
Cosmos 1818 4.2 20:02:26 10° SW 20:07:48 59° NW 20:13:12 10° NNE
ERS-1 Rocket 4.0 20:07:39 28° ENE 20:08:15 29° ENE 20:12:32 10° N
ERBS 4.3 20:07:18 10° NNW 20:09:54 20° NNE 20:10:29 19° NE
Landsat 7 4.3 20:11:37 40° E 20:12:14 42° ENE 20:16:43 10° N
SPOT 1/Viking Rocket 4.0 20:14:31 39° E 20:15:24 42° ENE 20:20:19 10° N
MetOp-B 4.0 20:15:08 40° SSE 20:17:04 74° ENE 20:22:27 10° N
Cosmos 1461 3.0 20:14:25 10° NW 20:18:58 89° WSW 20:19:51 59° SE
Cosmos 1954 Rocket 3.9 20:21:02 41° SSE 20:22:43 62° ESE 20:27:53 10° NNE
SAR-Lupe-2 3.8 20:23:35 10° NNE 20:26:38 62° N 20:26:38 62° N
STARLINK-1143 4.5 20:28:27 10° NW 20:32:24 40° NNE 20:32:52 39° NE
CZ-4C R/B 4.3 20:27:11 10° NNW 20:32:41 26° NNE 20:37:07 16° ENE
Cosmos 1697 Rocket 4.2 20:30:04 10° N 20:34:28 22° NE 20:35:27 21° ENE
Cosmos 1076 Rocket 4.0 20:31:31 10° N 20:35:03 48° NE 20:35:03 48° NE
SPOT 5 3.6 20:36:47 34° NE 20:36:47 34° NE 20:40:00 10° N
STARLINK-1241 4.4 20:33:28 10° NW 20:37:26 42° NNE 20:37:41 41° NNE
CZ-2C R/B 3.3 20:33:42 10° N 20:38:42 51° WNW 20:43:42 10° SW
STARLINK-1239 4.4 20:38:26 10° NW 20:42:25 43° NNE 20:42:27 43° NNE
NOSS 3-4 (A) 4.3 20:36:16 10° NW 20:43:07 55° WSW 20:46:22 33° S
NOSS 3-4 (C) 4.3 20:36:22 10° NW 20:43:14 55° WSW 20:46:27 34° S
Cosmos 2341 Rocket 4.3 20:37:13 10° NNW 20:43:33 68° W 20:46:40 32° SSW
Cosmos 2058 3.5 20:41:10 10° N 20:44:18 48° NNE 20:44:18 48° NNE
STARLINK-1240 4.4 20:43:26 10° NW 20:47:15 45° N 20:47:15 45° N
Cosmos 1763 Rocket 3.9 20:44:48 10° NNW 20:49:35 46° NE 20:49:35 46° NE
STARLINK-1216 4.5 20:48:25 10° NW 20:52:02 45° N 20:52:02 45° N
Terra 2.7 20:55:02 38° NE 20:55:02 38° NE 20:58:39 10° N
RESURS DK-1 4.2 20:54:00 10° N 20:56:27 23° NNE 20:56:27 23° NNE
Resurs 01 Rocket 3.5 20:59:16 20° SW 21:00:54 24° W 21:04:31 10° NW
Cosmos 2218 Rocket 4.0 20:54:52 10° N 21:01:06 79° W 21:02:26 57° SSW
Cosmos 192 4.4 20:56:34 10° NNW 21:01:06 73° N 21:01:06 73° N
Cosmos 1980 Rocket 3.8 20:58:30 10° N 21:02:42 21° NE 21:03:10 21° NE
Cosmos 1892 4.2 20:59:34 10° N 21:01:53 35° N 21:01:53 35° N
USA 234 3.3 21:02:00 10° NE 21:08:34 80° NW 21:15:05 10° WSW
CARTOSAT-1 4.4 21:10:07 46° N 21:10:07 46° N 21:13:13 10° NNW
Cosmos 1656 3.9 21:05:16 10° NNW 21:10:37 58° NE 21:10:37 58° NE
SL-4 R/B 4.1 21:08:10 10° W 21:09:22 19° WNW 21:09:22 19° WNW
Iridium 4 Rocket 3.9 21:07:29 10° N 21:10:42 46° NW 21:10:42 46° NW
Spot 2 Rocket 4.4 21:11:43 40° WSW 21:12:29 42° W 21:17:21 10° NNW
ATLAS 2AS CENTAUR R/B 4.0 21:08:39 10° NW 21:15:05 32° WSW 21:17:27 26° SW
Cosmos 2181 Rocket 4.5 21:12:14 31° SW 21:15:09 58° WNW 21:21:16 10° N
ATLAS 5 CENTAUR R/B 3.0 21:17:35 10° WSW 21:21:33 37° NW 21:26:02 10° NNE
Cosmos 841 Rocket 4.3 21:20:07 10° NNW 21:24:13 45° NNE 21:24:13 45° NNE
Mayak 1.4 21:30:03 10° NNE 21:30:34 13° NNE 21:30:34 13° NNE
COSMOS 2455 4.0 21:34:21 10° NW 21:39:36 32° WSW 21:39:49 32° WSW
Nadezhda 3 Rocket 4.1 21:43:49 67° NNE 21:43:49 67° NNE 21:49:15 10° N
COSMOS 2406 4.2 21:45:30 39° NNE 21:45:30 39° NNE 21:48:58 10° NNE
Cosmos 1833 Rocket 4.4 21:47:50 22° NE 21:47:50 22° NE 21:49:50 10° NE
ERS-1 Rocket 4.1 21:47:39 38° WNW 21:47:39 38° WNW 21:51:37 10° NNW
ATLAS CENTAUR R/B 3.9 21:46:23 10° NNW 21:47:36 17° N 21:47:36 17° N
Cosmos 2369 4.5 22:01:42 10° NNW 22:05:45 48° NNW 22:05:45 48° NNW
Cosmos 1697 Rocket 3.7 22:13:23 10° NNW 22:17:11 44° NW 22:17:11 44° NW
CZ-4C R/B 3.1 22:15:27 10° NW 22:22:18 66° NE 22:22:18 66° NE
Cosmos 1934 Rocket 4.5 22:17:29 10° N 22:22:23 56° NNW 22:22:23 56° NNW
Terra 4.1 22:33:54 19° WNW 22:33:54 19° WNW 22:35:55 10° NW
SL-16 R/B 3.8 22:28:29 10° N 22:32:20 28° NNE 22:32:20 28° NNE
Cosmos 2360 Rocket 4.3 22:35:37 10° N 22:39:22 18° NE 22:39:34 18° NE
Cosmos 2322 Rocket 3.8 22:38:23 10° N 22:42:08 27° NNE 22:42:08 27° NNE
Cosmos 1980 Rocket 3.5 22:41:45 10° NNW 22:44:56 35° NNW 22:44:56 35° NNW
USA 234 4.3 22:45:06 10° NE 22:51:07 41° NNW 22:57:07 10° W
Mayak 1.8 23:06:27 10° NNW 23:07:09 13° NNW 23:07:09 13° NNW
Cosmos 2082 Rocket 3.7 23:15:18 33° N 23:15:18 33° N 23:18:33 10° NNE
Cosmos 2344 4.3 23:08:00 10° NW 23:17:44 79° SW 23:18:39 75° SSW
Cosmos 1833 Rocket 4.4 23:29:29 28° NNW 23:29:29 28° NNW 23:33:29 10° N
SL-16 R/B 4.5 23:29:17 18° ENE 23:30:25 19° NE 23:34:35 10° NNE
Cosmos 2219 Rocket 4.4 23:35:23 10° N 23:39:14 18° NE 23:40:10 18° NE
